CAPE
0 0 0 0 0 2 8 1 0 1 0 10 12 10 7 4 4 15 6 8 14 5 0 0 58 307 487 454 183 104 60 7 5 0 0 0 0 0 0 0 0 0 0
0 0 0 0 9 4 3 6 5 6 7 4 5 6 7 9 5 7 13 16 19 23 12 16 58 253 296 215 65 30 0 0 0 0 0 0 0 0 0 0 0 0 0
0 1 6 7 5 11 8 5 6 8 7 5 8 8 7 7 8 7 6 7 11 9 4 0 0 36 96 1 0 0 0 0 0 0 0 0 0 0 0 0 0 0 0
0 5 10 8 6 4 3 4 5 8 8 8 7 6 7 7 7 7 9 12 6 7 10 4 1 1 0 1 0 0 0 0 0 0 0 0 0 0 0 0 0 0 0
3 11 8 7 3 2 10 11 10 9 8 7 6 4 3 4 6 3 8 8 15 0 0 0 0 0 0 0 0 0 0 0 0 0 0 0 0 0 0 0 0 0 0
9 10 7 4 2 12 10 7 6 7 6 6 5 5 3 4 1 0 6 9 0 0 0 0 0 0 0 0 0 0 0 0 0 0 0 0 0 0 0 0 0 0 0
9 9 7 5 10 9 7 7 5 5 3 2 2 3 2 1 0 1 0 0 0 0 0 0 0 0 0 0 0 0 0 0 0 0 0 0 0 0 0 0 0 0 0
6 8 7 12 8 6 6 5 4 5 3 2 2 2 1 2 0 0 0 0 0 0 0 2 0 0 0 0 0 0 0 0 0 0 0 0 0 0 0 0 0 0 0
10 12 8 10 6 4 7 5 4 3 2 2 2 1 1 0 0 0 0 0 0 0 0 0 0 0 0 0 0 0 0 0 0 0 0 0 0 0 0 0 0 0 0
10 9 5 4 4 3 4 4 3 2 2 2 2 1 5 1 0 0 0 0 0 0 0 0 0 0 0 0 0 0 0 0 0 0 0 0 0 0 0 0 0 0 0
8 7 4 3 3 2 1 1 1 1 1 1 1 1 1 1 0 0 0 0 0 0 0 0 0 0 0 0 0 0 0 0 0 0 0 0 0 0 0 0 0 0 0
7 6 3 2 4 2 1 0 0 0 0 0 0 0 0 0 0 0 0 0 0 0 0 0 0 0 0 0 0 0 0 0 0 0 0 0 0 0 0 0 0 0 0
6 4 3 2 1 1 0 0 0 0 0 0 0 0 0 0 0 0 0 0 0 0 0 0 0 0 0 0 0 0 0 0 0 0 0 0 0 0 0 0 0 0 0
5 3 2 0 0 0 0 0 0 0 0 0 0 0 0 0 0 0 0 0 0 0 0 0 0 0 0 0 0 0 0 0 0 0 0 0 0 0 0 0 0 0 0
3 2 1 0 0 0 0 0 0 0 0 0 0 0 0 0 0 0 0 0 0 0 0 0 0 0 0 0 0 0 0 0 0 0 0 0 0 0 0 0 0 0 0
0 0 0 0 0 0 0 0 0 0 0 0 0 0 0 0 0 0 0 0 0 0 0 0 0 0 0 0 0 0 0 0 0 0 0 0 0 0 0 0 0 0 0
0 0 0 0 0 0 0 0 0 0 0 0 0 0 0 0 0 0 0 0 0 0 0 0 0 0 0 0 0 0 0 0 0 0 0 0 0 0 0 0 0 0 0
0 0 0 0 0 0 0 0 0 0 0 0 0 0 0 0 0 0 0 0 0 0 0 0 0 0 0 0 0 0 0 0 0 0 0 0 0 0 0 0 0 0 0
0 0 0 0 0 0 0 0 0 0 0 0 0 0 0 0 0 0 0 0 0 0 0 0 0 0 0 0 0 0 0 0 0 0 0 0 0 0 0 0 0 0 0
0 0 0 0 0 0 0 0 0 0 0 0 0 0 0 0 0 0 0 0 0 0 0 0 0 0 0 0 0 0 0 0 0 0 0 0 0 0 0 0 0 0 0
0 0 0 0 0 0 0 0 0 0 0 0 0 0 0 0 0 0 0 0 0 0 0 0 0 0 0 0 0 0 0 0 0 0 0 0 0 0 0 0 0 0 0
0 0 0 0 0 0 0 0 0 0 0 0 0 0 0 0 0 0 0 0 0 0 0 0 0 0 0 0 0 0 0 0 0 0 0 0 0 0 0 0 0 0 0
0 0 0 0 0 0 0 0 0 0 0 0 0 0 0 0 0 0 0 0 0 0 0 0 0 0 0 0 0 0 0 0 0 0 0 0 0 0 0 1 2 2 1
0 0 0 0 0 0 0 0 0 0 0 0 0 0 0 0 0 0 0 0 0 0 0 0 0 0 0 0 0 0 0 0 0 0 0 0 0 4 1 6 4 3 1
0 0 0 0 0 0 0 0 0 0 0 0 0 0 0 0 0 0 0 0 0 0 0 0 0 0 0 0 0 0 0 0 0 0 0 2 5 4 2 5 7 3 2
0 0 0 0 0 0 0 0 0 0 0 0 0 0 0 0 0 0 0 0 0 0 0 0 0 0 0 0 0 0 0 0 0 0 2 5 0 1 3 5 6 2 3
CIN
-0 -0 -0 -0 -0 -2 -0 -1 -1 -2 -0 -0 -0 -0 -0 -0 -1 -1 -3 -2 -6 -8 -0 -0 -89 -22 -14 -44 -123 -149 -190 -196 -13 -0 -0 -0 -0 -0 -0 -0 -0 -0 -0
-0 -0 -0 -0 -0 -0 -0 -0 -0 -0 -0 -0 -0 -0 -0 -0 -1 -1 -0 -0 -2 -1 -3 -2 -130 -5 -31 -77 -173 -236 -0 -0 -0 -0 -0 -0 -0 -0 -0 -0 -0 -0 -0
-0 -1 -1 -0 -0 -0 -0 -0 -0 -0 -0 -0 -0 -0 -0 -0 -0 -0 -0 -1 -2 -4 -5 -0 -0 -137 -90 -0 -0 -0 -0 -0 -0 -0 -0 -0 -0 -0 -0 -0 -0 -0 -0
-0 -0 -0 -0 -0 -0 -0 -0 -0 -0 -0 -0 -0 -0 -0 -0 -0 -0 -0 -2 -6 -5 -4 -5 -26 -196 -0 -0 -0 -0 -0 -0 -0 -0 -0 -0 -0 -0 -0 -0 -0 -0 -0
-0 -0 -0 -0 -0 -0 -0 -0 -0 -0 -0 -0 -0 -0 -0 -0 -0 -0 -0 -1 -2 -1 -0 -0 -0 -0 -0 -0 -0 -0 -0 -0 -0 -0 -0 -0 -0 -0 -0 -0 -0 -0 -0
-0 -0 -0 -0 -0 -0 -0 -0 -0 -0 -0 -0 -0 -0 -0 -0 -0 -0 -0 -0 -0 -0 -0 -0 -0 -0 -0 -0 -0 -0 -0 -0 -0 -0 -0 -0 -0 -0 -0 -0 -0 -0 -0
-0 -0 -0 -0 -0 -0 -0 -0 -0 -0 -0 -0 -0 -0 -0 -0 -0 -0 -0 -0 -0 -0 -0 -0 -0 -0 -0 -0 -0 -0 -0 -0 -0 -0 -0 -0 -0 -0 -0 -0 -0 -0 -0
-0 -0 -0 -0 -0 -0 -0 -0 -0 -0 -0 -0 -0 -0 -0 -0 -0 -0 -0 -0 -0 -0 -0 -0 -0 -0 -0 -0 -0 -0 -0 -0 -0 -0 -0 -0 -0 -0 -0 -0 -0 -0 -0
-0 -0 -0 -0 -0 -0 -0 -0 -0 -0 -0 -0 -0 -0 -0 -0 -0 -0 -0 -1 -0 -0 -0 -0 -0 -0 -0 -0 -0 -0 -0 -0 -0 -0 -0 -0 -0 -0 -0 -0 -0 -0 -0
-0 -0 -0 -0 -0 -0 -0 -0 -0 -0 -0 -0 -0 -0 -0 -0 -0 -0 -0 -0 -0 -0 -0 -0 -0 -0 -0 -0 -0 -0 -0 -0 -0 -0 -0 -0 -0 -0 -0 -0 -0 -0 -0
-0 -0 -0 -0 -0 -0 -0 -0 -0 -0 -1 -1 -0 -0 -0 -0 -0 -0 -0 -0 -0 -0 -0 -0 -0 -0 -0 -0 -0 -0 -0 -0 -0 -0 -0 -0 -0 -0 -0 -0 -0 -0 -0
-0 -0 -0 -0 -0 -0 -0 -1 -0 -0 -0 -0 -0 -0 -0 -0 -0 -0 -0 -0 -0 -0 -0 -0 -0 -0 -0 -0 -0 -0 -0 -0 -0 -0 -0 -0 -0 -0 -0 -0 -0 -0 -0
-0 -0 -0 -0 -0 -0 -0 -0 -0 -0 -0 -0 -0 -0 -0 -0 -0 -0 -0 -0 -0 -0 -0 -0 -0 -0 -0 -0 -0 -0 -0 -0 -0 -0 -0 -0 -0 -0 -0 -0 -0 -0 -0
-0 -0 -0 -0 -0 -0 -0 -0 -0 -0 -0 -0 -0 -0 -0 -0 -0 -0 -0 -0 -0 -0 -0 -0 -0 -0 -0 -0 -0 -0 -0 -0 -0 -0 -0 -0 -0 -0 -0 -0 -0 -0 -0
-0 -0 -0 -0 -0 -0 -0 -0 -0 -0 -0 -0 -0 -0 -0 -0 -0 -0 -0 -0 -0 -0 -0 -0 -0 -0 -0 -0 -0 -0 -0 -0 -0 -0 -0 -0 -0 -0 -0 -0 -0 -0 -0
-0 -0 -0 -0 -0 -0 -0 -0 -0 -0 -0 -0 -0 -0 -0 -0 -0 -0 -0 -0 -0 -0 -0 -0 -0 -0 -0 -0 -0 -0 -0 -0 -0 -0 -0 -0 -0 -0 -0 -0 -0 -0 -0
-0 -0 -0 -0 -0 -0 -0 -0 -0 -0 -0 -0 -0 -0 -0 -0 -0 -0 -0 -0 -0 -0 -0 -0 -0 -0 -0 -0 -0 -0 -0 -0 -0 -0 -0 -0 -0 -0 -0 -0 -0 -0 -0
-0 -0 -0 -0 -0 -0 -0 -0 -0 -0 -0 -0 -0 -0 -0 -0 -0 -0 -0 -0 -0 -0 -0 -0 -0 -0 -0 -0 -0 -0 -0 -0 -0 -0 -0 -0 -0 -0 -0 -0 -0 -0 -0
-0 -0 -0 -0 -0 -0 -0 -0 -0 -0 -0 -0 -0 -0 -0 -0 -0 -0 -0 -0 -0 -0 -0 -0 -0 -0 -0 -0 -0 -0 -0 -0 -0 -0 -0 -0 -0 -0 -0 -0 -0 -0 -0
-0 -0 -0 -0 -0 -0 -0 -0 -0 -0 -0 -0 -0 -0 -0 -0 -0 -0 -0 -0 -0 -0 -0 -0 -0 -0 -0 -0 -0 -0 -0 -0 -0 -0 -0 -0 -0 -0 -0 -0 -0 -0 -0
-0 -0 -0 -0 -0 -0 -0 -0 -0 -0 -0 -0 -0 -0 -0 -0 -0 -0 -0 -0 -0 -0 -0 -0 -0 -0 -0 -0 -0 -0 -0 -0 -0 -0 -0 -0 -0 -0 -0 -0 -0 -0 -0
-0 -0 -0 -0 -0 -0 -0 -0 -0 -0 -0 -0 -0 -0 -0 -0 -0 -0 -0 -0 -0 -0 -0 -0 -0 -0 -0 -0 -0 -0 -0 -0 -0 -0 -0 -0 -0 -0 -0 -0 -0 -0 -0
-0 -0 -0 -0 -0 -0 -0 -0 -0 -0 -0 -0 -0 -0 -0 -0 -0 -0 -0 -0 -0 -0 -0 -0 -0 -0 -0 -0 -0 -0 -0 -0 -0 -0 -0 -0 -0 -0 -0 -0 -0 -0 -0
-0 -0 -0 -0 -0 -0 -0 -0 -0 -0 -0 -0 -0 -0 -0 -0 -0 -0 -0 -0 -0 -0 -0 -0 -0 -0 -0 -0 -0 -0 -0 -0 -0 -0 -0 -0 -0 -0 -0 -0 -0 -0 -0
-0 -0 -0 -0 -0 -0 -0 -0 -0 -0 -0 -0 -0 -0 -0 -0 -0 -0 -0 -0 -0 -0 -0 -0 -0 -0 -0 -0 -0 -0 -0 -0 -0 -0 -0 -0 -0 -0 -0 -0 -0 -0 -0
-0 -0 -0 -0 -0 -0 -0 -0 -0 -0 -0 -0 -0 -0 -0 -0 -0 -0 -0 -0 -0 -0 -0 -0 -0 -0 -0 -0 -0 -0 -0 -0 -0 -0 -0 -0 -0 -0 -0 -0 -0 -0 -0
Wind_Speed
10 13 14 13 13 13 14 16 15 13 15 15 14 14 15 14 13 12 12 13 9 8 9 10 11 9 7 4 4 4 4 4 4 1 2 2 3 4 4 3 2 2 1
13 13 14 14 14 15 14 16 15 16 15 15 15 15 15 14 14 12 12 10 9 9 5 7 9 6 8 6 5 6 5 4 5 4 2 1 3 5 5 3 2 2 3
12 13 14 15 15 16 16 16 16 16 16 15 15 15 15 14 14 13 13 11 10 9 6 8 10 8 6 3 3 5 5 3 5 5 3 2 3 3 2 2 2 3 2
15 15 14 15 16 16 16 16 15 15 15 14 14 15 15 15 14 12 12 9 9 9 6 6 7 7 6 8 6 7 7 7 7 6 5 3 4 4 4 3 3 3 3
14 13 15 15 16 16 15 14 14 13 12 12 13 14 14 12 9 11 10 8 5 5 3 4 4 9 14 10 8 7 9 8 8 7 6 5 3 3 3 2 1 1 1
13 14 15 15 15 15 13 13 13 12 11 11 11 11 8 4 7 11 8 6 8 8 8 9 10 16 19 18 16 11 9 14 9 5 4 7 4 3 2 1 0 1 1
13 14 14 14 14 13 13 12 13 13 12 12 12 12 12 12 11 14 13 9 10 8 8 9 11 9 14 14 20 20 18 17 12 8 8 4 3 2 3 2 1 1 1
12 13 13 13 13 13 13 13 13 11 11 10 12 13 13 14 22 18 24 14 13 13 10 11 10 9 8 10 11 12 11 9 8 6 7 5 5 3 4 3 3 1 1
13 12 13 12 12 12 12 13 12 11 11 11 11 14 15 16 23 18 16 14 15 15 11 11 10 10 10 9 11 11 11 7 8 10 9 10 8 7 3 3 3 4 2
13 12 12 12 12 12 12 12 11 9 11 10 13 13 20 16 24 23 13 9 15 11 11 11 14 9 12 10 8 8 9 4 5 5 4 5 3 4 4 4 3 3 1
10 10 11 11 10 11 11 11 11 11 12 12 13 14 16 17 20 27 22 9 8 9 8 6 6 12 9 8 8 6 4 3 4 4 3 3 3 3 3 2 1 1 1
10 10 11 10 9 9 11 11 12 11 12 13 13 12 12 14 22 21 20 19 15 9 6 5 6 12 10 8 5 3 3 2 3 4 5 4 5 6 5 4 5 6 5
10 11 10 10 9 9 11 11 9 10 10 10 9 9 9 8 8 16 14 14 13 6 4 6 8 10 10 9 13 11 7 6 7 8 7 5 3 3 3 2 6 5 5
10 10 10 9 10 10 8 8 8 8 9 9 9 9 9 9 8 9 7 5 7 6 6 7 9 11 15 13 12 12 9 8 7 6 5 3 2 2 2 3 3 3 2
10 9 9 8 9 8 8 6 6 4 4 5 6 7 7 9 8 9 7 8 7 8 7 9 9 9 9 9 9 8 7 8 7 4 4 3 4 4 3 2 2 2 1
10 6 7 6 6 6 6 6 10 11 15 16 13 8 4 5 9 17 20 19 18 16 11 9 8 7 8 6 6 6 8 8 5 5 5 5 4 3 3 3 3 3 2
5 5 4 6 5 5 4 4 5 8 8 9 12 17 17 15 19 18 17 21 19 16 10 8 7 7 6 6 5 6 5 5 5 5 5 4 3 3 3 3 4 3 3
5 5 4 4 4 5 6 6 4 5 5 6 13 15 20 23 22 19 16 15 12 12 9 8 8 8 7 7 5 6 6 6 6 6 5 5 5 4 3 4 4 5 4
4 4 5 4 4 5 5 6 6 7 7 7 8 11 12 18 18 19 16 10 9 9 8 9 7 7 6 6 5 5 6 6 5 5 4 4 4 3 4 4 4 5 4
4 8 5 4 4 6 6 6 7 7 7 7 8 6 7 11 11 10 10 9 8 7 7 7 7 6 6 6 5 6 5 5 5 4 3 3 3 4 4 4 4 3 3
4 3 5 4 4 5 4 5 5 6 6 7 8 8 9 9 8 6 7 8 7 7 6 6 6 6 7 6 6 5 5 5 5 5 4 5 5 4 4 3 3 3 3
4 3 3 4 4 5 5 4 5 6 6 6 5 8 10 7 7 7 7 7 6 6 6 6 7 6 6 5 6 6 5 5 5 6 5 5 5 4 4 4 3 3 3
5 4 3 4 4 5 5 6 6 6 6 6 6 6 7 6 6 6 7 6 7 7 7 8 7 6 6 6 5 5 5 5 5 5 5 5 5 5 4 3 4 3 3
4 3 2 4 4 5 5 5 5 7 8 7 7 6 5 4 6 8 7 7 7 7 7 7 6 8 8 7 6 6 5 6 5 6 7 5 5 5 4 4 4 4 3
3 4 5 5 5 5 6 6 6 7 7 6 6 6 6 7 8 8 7 6 7 8 8 7 7 9 10 12 11 12 10 9 9 6 5 6 7 7 6 5 5 4 5
3 5 5 5 5 5 5 6 6 5 5 6 6 7 7 8 8 7 7 7 7 7 9 7 9 13 14 10 12 11 10 10 9 8 6 6 6 6 6 6 8 5 6
Wind_Direction
337 322 317 314 310 308 309 306 301 290 286 284 281 275 271 267 265 263 256 247 240 250 253 253 257 249 248 227 230 211 185 146 164 117 86 116 105 126 97 109 143 139 198
325 323 317 309 313 311 308 303 297 291 286 283 279 273 268 264 257 253 257 261 257 245 241 248 253 254 239 229 210 189 151 144 140 118 94 150 117 134 145 124 221 222 219
328 323 318 323 316 314 310 304 301 296 291 286 279 271 267 259 255 243 243 243 243 253 246 257 262 254 245 179 151 139 121 114 104 125 122 204 112 124 131 127 63 19 34
333 324 325 328 321 312 310 308 303 300 295 289 283 276 266 259 245 241 239 232 230 241 244 243 241 225 179 139 127 122 121 105 87 101 99 86 86 58 87 67 33 26 322
329 331 330 321 318 314 315 318 316 312 307 299 293 283 266 254 239 224 228 224 202 139 112 95 70 109 113 118 132 127 126 111 113 128 111 104 90 78 79 36 350 297 282
336 333 326 325 321 328 334 335 334 335 335 338 338 344 6 309 235 211 210 214 136 127 111 89 85 87 87 92 99 108 129 129 127 109 117 120 125 120 120 161 205 349 1
338 329 329 326 336 341 342 349 356 351 353 1 1 10 21 7 330 209 123 102 100 95 94 97 88 84 91 96 89 87 79 78 88 115 116 98 97 123 131 115 148 130 234
333 330 333 342 346 348 355 1 2 357 2 8 14 22 29 25 34 77 100 96 87 78 78 81 88 87 85 99 102 94 82 70 74 88 91 93 90 127 138 152 155 185 289
340 348 350 351 354 356 8 8 5 7 10 18 22 32 40 37 35 39 78 88 88 78 64 70 75 77 69 66 93 97 88 66 62 88 98 109 117 113 115 102 60 74 29
355 356 353 353 0 7 10 12 8 11 20 26 36 35 43 45 37 38 45 78 88 86 72 62 59 68 59 54 81 85 82 82 110 100 100 94 117 76 65 57 41 73 92
0 355 359 2 3 10 21 19 17 22 28 35 41 40 43 43 43 42 30 50 73 84 78 65 44 35 42 69 81 90 103 143 147 132 135 75 54 48 39 24 269 161 153
8 5 9 7 13 15 23 23 24 28 32 36 38 42 34 29 33 29 31 42 45 60 53 30 17 7 6 7 12 308 119 100 106 89 88 76 74 74 57 40 41 70 68
18 16 17 20 19 27 32 27 29 27 32 31 30 31 24 15 19 18 19 29 37 41 32 33 18 12 33 73 64 81 92 80 81 75 75 65 62 105 103 65 57 53 52
25 23 21 26 37 29 34 38 35 24 31 30 23 21 15 8 10 3 355 6 8 27 24 52 58 63 61 53 51 47 54 57 62 63 60 52 41 42 54 54 49 359 4
34 33 37 36 34 28 28 28 17 17 44 19 12 4 1 358 341 344 32 36 31 32 51 53 49 50 48 43 43 45 56 55 52 39 53 49 48 34 29 40 31 23 28
60 38 20 17 19 18 20 5 350 3 2 351 358 6 332 325 349 51 51 46 46 47 53 49 42 38 52 49 44 44 43 38 24 28 27 30 36 23 13 37 19 31 14
27 5 1 13 5 5 5 12 351 342 336 346 358 49 57 48 38 39 46 53 42 50 51 46 46 38 33 31 35 46 38 25 21 32 32 14 7 17 10 24 13 14 14
359 6 352 343 351 350 352 353 7 18 15 16 32 44 46 49 44 41 35 50 43 39 46 41 35 31 26 27 19 38 29 22 23 20 21 14 8 14 12 17 16 15 4
335 339 338 339 335 349 1 20 30 36 39 41 37 33 27 43 43 38 37 50 47 39 32 35 28 28 22 20 7 26 34 24 14 15 14 15 3 7 19 15 4 360 342
340 348 20 6 17 20 25 35 37 39 40 41 44 28 36 47 44 40 37 39 38 35 28 28 25 23 19 16 11 16 15 8 0 358 345 346 4 18 15 358 350 348 333
14 24 16 36 30 28 20 23 26 43 49 50 50 43 43 55 46 31 39 36 34 31 22 20 17 18 16 13 9 7 360 354 348 338 351 14 21 15 357 343 333 325 326
21 12 48 39 21 17 16 37 44 47 47 50 40 45 38 44 44 40 33 27 17 19 16 20 20 15 5 359 358 356 349 349 354 356 11 12 8 353 337 327 340 356 10
350 335 359 2 15 27 43 47 50 51 48 46 47 49 44 46 47 42 40 30 24 21 18 20 17 7 360 355 351 342 354 353 340 358 8 1 350 345 341 12 11 11 32
293 274 358 46 55 57 54 48 45 46 57 57 56 52 49 47 52 44 34 25 19 16 20 18 10 4 0 3 3 5 5 360 5 6 9 358 356 0 9 27 36 12 33
10 77 81 79 73 66 62 57 53 48 46 55 60 57 53 50 45 38 24 19 19 16 10 7 7 4 8 9 12 15 6 6 20 0 9 17 25 28 27 28 39 34 50
46 75 80 72 68 69 70 68 60 52 55 64 63 60 57 50 45 37 25 22 19 14 11 7 4 14 10 8 7 3 6 10 14 7 20 32 38 30 28 30 38 41 50